TimeCST,TemperatureF,Dew PointF,Humidity,Sea Level PressureIn,VisibilityMPH,Wind Direction,Wind SpeedMPH,Gust SpeedMPH,PrecipitationIn,Events,Conditions,WindDirDegrees,DateUTC
12:55 AM,46.4,34.5,63,30.29,10.0,North,6.9,-,N/A,,Clear,10,2012-11-18 06:55:00
1:55 AM,45.0,34.2,66,30.29,10.0,NNE,8.1,-,N/A,,Clear,30,2012-11-18 07:55:00
2:55 AM,45.1,34.2,65,30.28,10.0,NE,4.6,-,N/A,,Scattered Clouds,40,2012-11-18 08:55:00
3:55 AM,44.1,34.0,68,30.29,10.0,NNE,6.9,-,N/A,,Clear,30,2012-11-18 09:55:00
4:55 AM,44.4,34.2,67,30.29,10.0,NNE,9.2,-,N/A,,Overcast,20,2012-11-18 10:55:00
5:55 AM,44.8,34.7,68,30.30,10.0,NNE,6.9,-,N/A,,Mostly Cloudy,30,2012-11-18 11:55:00
6:55 AM,43.9,34.7,70,30.32,9.0,NNE,9.2,-,N/A,,Clear,30,2012-11-18 12:55:00
7:55 AM,47.8,35.1,61,30.32,6.0,NE,11.5,-,N/A,,Haze,40,2012-11-18 13:55:00
8:55 AM,52.7,38.3,58,30.32,6.0,NE,10.4,-,N/A,,Haze,40,2012-11-18 14:55:00
9:55 AM,58.1,40.3,52,30.32,10.0,NNE,11.5,-,N/A,,Clear,30,2012-11-18 15:55:00
10:55 AM,61.3,40.6,47,30.30,8.0,ENE,10.4,-,N/A,,Clear,60,2012-11-18 16:55:00
11:55 AM,64.4,41.4,43,30.27,8.0,NE,8.1,-,N/A,,Clear,40,2012-11-18 17:55:00
12:55 PM,66.0,42.1,42,30.26,10.0,NE,8.1,-,N/A,,Clear,40,2012-11-18 18:55:00
1:55 PM,68.0,43.2,41,30.24,10.0,North,9.2,-,N/A,,Clear,350,2012-11-18 19:55:00
2:55 PM,68.2,43.9,41,30.24,10.0,North,6.9,-,N/A,,Clear,350,2012-11-18 20:55:00
3:55 PM,66.9,44.2,44,30.24,10.0,NNE,8.1,-,N/A,,Clear,20,2012-11-18 21:55:00
4:55 PM,62.6,44.8,52,30.24,10.0,NNW,4.6,-,N/A,,Clear,340,2012-11-18 22:55:00
5:55 PM,60.6,44.6,56,30.25,10.0,NNW,6.9,-,N/A,,Clear,340,2012-11-18 23:55:00
6:55 PM,56.7,45.5,66,30.27,10.0,NNW,4.6,-,N/A,,Clear,330,2012-11-19 00:55:00
7:55 PM,54.9,44.6,68,30.27,10.0,North,4.6,-,N/A,,Clear,360,2012-11-19 01:55:00
8:55 PM,51.4,45.5,80,30.28,10.0,North,3.5,-,N/A,,Clear,360,2012-11-19 02:55:00
9:55 PM,51.6,43.7,74,30.28,10.0,North,4.6,-,N/A,,Clear,10,2012-11-19 03:55:00
10:55 PM,46.9,43.3,87,30.28,10.0,NNE,5.8,-,N/A,,Clear,20,2012-11-19 04:55:00
11:55 PM,48.9,43.9,83,30.28,10.0,NNE,5.8,-,N/A,,Clear,20,2012-11-19 05:55:00